Fort Huachuca, AZ

12:07 AM MST on February 21, 2017 (GMT -0700)
Sierra Vista Municipal-Libby Army Air Field

Weather History for KFHU - December, 2013

Change the Weather History Date:

Friday, December 27, 2013

  Actual Average Record
Temperature  
Mean Temperature 45 °F -  
Max Temperature 57 °F 58 °F 71 °F (1984)
Min Temperature 33 °F 36 °F 17 °F (1987)
Degree Days  
Heating Degree Days 20    
Moisture  
Dew Point 19 °F    
Average Humidity 40    
Maximum Humidity 59    
Minimum Humidity 21    
Precipitation  
Precipitation 0.00 in - - ()
Sea Level Pressure  
Sea Level Pressure 30.21 in    
Wind  
Wind Speed 8 mph (ESE)    
Max Wind Speed 14 mph    
Max Gust Speed 21 mph    
Visibility 10 miles    
Events      
Averages and records for this station are not official NWS values.
T = Trace of Precipitation, MM = Missing Value Source: NWS Daily Summary

Daily Weather History Graph

Daily Weather History Graph

Search for Another Location

Airport or City:

Trip Planner

Search our weather history database for the weather conditions in past years. The results will help you decide how hot, cold, wet, or windy it might be!

Date:

Astronomy

Dec. 27, 2013 Rise Set
Actual Time 7:19 AM MST 5:25 PM MST
Civil Twilight 6:52 AM MST 5:52 PM MST
Nautical Twilight 6:22 AM MST 6:23 PM MST
Astronomical Twilight 5:52 AM MST 6:52 PM MST
Moon 2:06 AM MST (12/27) 1:28 PM MST (12/27)
Length of Visible Light 10h 59m
Length of Day
10h 06m
Waning Crescent, 28% of the Moon is Illuminated
Dec 27
Waning Crescent
Jan 1
New
Jan 7
First Quarter
Jan 15
Full
Jan 23
Last Quarter

Hourly Weather History & Observations

Time (MST) Temp. Windchill Dew Point Humidity Pressure Visibility Wind Dir Wind Speed Gust Speed Precip Events Conditions
12:56 AM 36.0 °F 32.1 °F 19.9 °F 52% 30.22 in 10.0 mi ENE 4.6 mph - N/A   Clear
1:56 AM 34.0 °F 27.2 °F 19.0 °F 54% 30.22 in 10.0 mi SSE 8.1 mph - N/A   Clear
2:56 AM 36.0 °F 30.3 °F 18.0 °F 48% 30.22 in 10.0 mi ESE 6.9 mph - N/A   Clear
3:56 AM 34.0 °F 28.8 °F 18.0 °F 52% 30.22 in 10.0 mi ESE 5.8 mph - N/A   Clear
4:56 AM 34.0 °F 27.2 °F 19.9 °F 56% 30.21 in 10.0 mi East 8.1 mph - N/A   Clear
5:56 AM 34.0 °F 27.2 °F 21.0 °F 59% 30.24 in 10.0 mi ESE 8.1 mph - N/A   Clear
6:55 AM 33.8 °F 25.3 °F 19.4 °F 56% 30.26 in 10.0 mi SSE 11.5 mph - N/A   Clear
7:55 AM 35.6 °F 29.2 °F 17.6 °F 48% 30.27 in 10.0 mi ESE 8.1 mph - N/A   Clear
8:55 AM 42.8 °F 39.3 °F 19.4 °F 39% 30.27 in 10.0 mi ESE 5.8 mph - N/A   Clear
9:55 AM 48.2 °F - 15.8 °F 27% 30.26 in 10.0 mi SE 11.5 mph - N/A   Clear
10:55 AM 51.8 °F - 17.6 °F 26% 30.25 in 10.0 mi ESE 10.4 mph - N/A   Clear
11:55 AM 53.6 °F - 19.4 °F 26% 30.22 in 10.0 mi East 11.5 mph - N/A   Clear
12:55 PM 53.6 °F - 23.0 °F 30% 30.20 in 10.0 mi Variable 5.8 mph - N/A   Clear
1:55 PM 55.4 °F - 19.4 °F 25% 30.17 in 10.0 mi East 6.9 mph - N/A   Clear
2:55 PM 57.2 °F - 19.4 °F 23% 30.14 in 10.0 mi East 8.1 mph - N/A   Clear
3:55 PM 55.4 °F - 15.8 °F 21% 30.15 in 10.0 mi East 13.8 mph - N/A   Clear
4:55 PM 53.6 °F - 15.8 °F 22% 30.16 in 10.0 mi East 13.8 mph 20.7 mph N/A   Clear
5:55 PM 46.4 °F 42.9 °F 17.6 °F 32% 30.19 in 10.0 mi SE 6.9 mph - N/A   Clear
6:55 PM 42.8 °F 38.0 °F 19.4 °F 39% 30.21 in 10.0 mi SE 8.1 mph - N/A   Clear
7:55 PM 42.8 °F 38.0 °F 17.6 °F 36% 30.22 in 10.0 mi SSE 8.1 mph - N/A   Clear
8:55 PM 39.2 °F 33.6 °F 19.4 °F 45% 30.20 in 10.0 mi SSE 8.1 mph - N/A   Clear
9:55 PM 41.0 °F 36.4 °F 19.4 °F 42% 30.19 in 10.0 mi SSE 6.9 mph - N/A   Clear
10:55 PM 37.4 °F 32.1 °F 21.2 °F 52% 30.19 in 10.0 mi SSE 6.9 mph - N/A   Clear
11:56 PM 37.9 °F 35.5 °F 21.9 °F 53% 30.18 in 10.0 mi ESE 3.5 mph - N/A   Clear